This is the latest recevied weather packets stored in our database for station/object IN3XSV-13. If no packets are shown the sender has not sent any weather packets the latest 10 day(s).
| Time | Temp. | Humidity | Pressure | Rain* | Wind** | Luminosity | Snow |
|---|---|---|---|---|---|---|---|
| 1777908831 | 22.78° C | 40% | 9954.1 hPa | 0 mm | - | - | - |
| 1777908531 | 23.33° C | 40% | 9954 hPa | 0 mm | - | - | - |
| 1777908231 | 22.78° C | 40% | 9953.9 hPa | 0 mm | - | - | - |
| 1777907931 | 23.33° C | 39% | 9954 hPa | 0 mm | - | - | - |
| 1777907631 | 23.33° C | 40% | 9954.1 hPa | 0 mm | - | - | - |
| 1777907331 | 22.78° C | 40% | 9954.1 hPa | 0 mm | - | - | - |
| 1777907031 | 23.33° C | 39% | 9954.1 hPa | 0 mm | - | - | - |
| 1777906731 | 22.78° C | 39% | 9954.1 hPa | 0 mm | - | - | - |
| 1777906431 | 23.89° C | 38% | 9954.1 hPa | 0 mm | - | - | - |
| 1777906131 | 23.89° C | 39% | 9954.1 hPa | 0 mm | - | - | - |
| 1777905831 | 23.89° C | 39% | 9954.3 hPa | 0 mm | - | - | - |
| 1777905531 | 24.44° C | 39% | 9954.2 hPa | 0 mm | - | - | - |
| 1777905231 | 23.89° C | 38% | 9954.3 hPa | 0 mm | - | - | - |
| 1777904931 | 24.44° C | 38% | 9954.4 hPa | 0 mm | - | - | - |
| 1777904631 | 25.56° C | 38% | 9954.5 hPa | 0 mm | - | - | - |
| 1777904331 | 25.56° C | 38% | 9954.4 hPa | 0 mm | - | - | - |
| 1777904031 | 25° C | 38% | 9954.4 hPa | 0 mm | - | - | - |
| 1777903731 | 24.44° C | 39% | 9954.5 hPa | 0 mm | - | - | - |
| 1777903431 | 24.44° C | 39% | 9954.4 hPa | 0 mm | - | - | - |
| 1777903131 | 23.89° C | 39% | 9954.5 hPa | 0 mm | - | - | - |
| 1777902831 | 24.44° C | 39% | 9954.5 hPa | 0 mm | - | - | - |
| 1777902531 | 24.44° C | 39% | 9954.6 hPa | 0 mm | - | - | - |
| 1777902231 | 24.44° C | 39% | 9954.5 hPa | 0 mm | - | - | - |
| 1777901931 | 23.89° C | 40% | 9954.6 hPa | 0 mm | - | - | - |
| 1777901631 | 23.89° C | 40% | 9954.8 hPa | 0 mm | - | - | - |
* Rain latest hour (hover to see other rain measurements)
** Current wind speed in m/s (hover to see current wind gust speed)